Home   Weather   Santarém   Past weeks

Flag for Brazil Past Weather in Santarém, Pará, Brazil — Yesterday and Last 2 Weeks

Now
79 °F

Partly cloudy.


Feels Like: 83 °F
Forecast: 74 / 86 °F
Wind: 3 mph from Northeast

Location: Santarem-Aeroporto

Current Time: Jan 17, 2017 at 8:24:54 am

Latest Report: Jan 17, 2017 at 7:00 am


Visibility: N/A

Pressure: 29.80 "Hg

Humidity: 94%

Dew Point: 77 °F

Location of SantarémLocation

Past Weather in Santarém — Graph

°F

Santarém Temperature Yesterday

Maximum temperature yesterday: 90 °F (at 2:00 pm)
Minimum temperature yesterday: 73 °F (at 4:00 am)
Average temperature yesterday: 81 °F

High & Low Weather Summary for the Past Weeks

 TemperatureHumidityPressure
High90 °F (Jan 12, 4:00 pm)100% (Jan 2, 7:00 am)29.95 "Hg (Jan 2, 7:00 am)
Low70 °F (Jan 9, 7:00 am)59% (Jan 12, 4:00 pm)29.71 "Hg (Jan 10, 6:00 pm)
Average80 °F84%29.83 "Hg
* Reported Jan 2 7:00 am — Jan 17 7:00 am, Santarém, Weather by CustomWeather, © 2017

Note: Actual official high and low records may vary slightly from our data, if they occured in-between our weather recording intervals... More about our weather records

Advertising

Santarém Weather History for the Previous 24 Hours

Scroll right to see more
 ConditionsComfort  
Time TempWeatherWind HumidityBarometerVisibility
7:00 am
Tue, Jan 17
79 °FPartly cloudy.3 mph94%29.80 "HgN/A
6:00 am79 °FPartly cloudy.5 mph89%29.77 "HgN/A
5:00 am79 °FPassing clouds.2 mph94%29.77 "HgN/A
4:00 am79 °FThunderstorms. Passing clouds.3 mph94%29.77 "HgN/A
3:00 am81 °FThunderstorms. Passing clouds.6 mph89%29.77 "HgN/A
2:00 am81 °FPassing clouds.10 mph89%29.80 "HgN/A
1:00 am77 °FPassing clouds.2 mph94%29.80 "HgN/A
12:00 am79 °FPassing clouds.No wind94%29.83 "HgN/A
11:00 pm
Mon, Jan 16
77 °FPassing clouds.2 mph100%29.83 "HgN/A
10:00 pm79 °FClear.2 mph94%29.80 "Hg10 mi
9:00 pm79 °FClear.No wind94%29.77 "Hg10 mi
8:00 pm82 °FClear.8 mph84%29.74 "Hg10 mi
7:00 pm84 °FPassing clouds.6 mph74%29.71 "HgN/A
6:00 pm88 °FPassing clouds.7 mph62%29.71 "HgN/A
5:00 pm88 °FPassing clouds.7 mph66%29.71 "HgN/A
4:00 pm88 °FScattered clouds.8 mph70%29.74 "HgN/A
3:00 pm86 °FScattered clouds.6 mph70%29.77 "HgN/A
2:00 pm90 °FScattered clouds.5 mph63%29.80 "HgN/A
1:00 pm88 °FScattered clouds.5 mph70%29.83 "HgN/A
12:00 pm84 °FPartly sunny.7 mph74%29.86 "HgN/A
11:00 am84 °FBroken clouds.5 mph74%29.89 "HgN/A
10:00 am81 °FScattered clouds.7 mph84%29.89 "HgN/A
9:00 am79 °FScattered clouds.3 mph89%29.86 "HgN/A
8:00 am79 °FScattered clouds.2 mph94%29.83 "HgN/A
Weather by CustomWeather, © 2017

See weather overviewHow to use our weather pages